Regional Weather Roundup
Issued by NWS

Home | Current Version | Previous Version | Text Only | Print | Product List | Glossary Off
Versions: 1 2 3 4 5 6 7 8 9 10 11 12 13 14 15 16 17 18 19 20 21 22 23 24 25 26 27 28 29 30 31 32 33 34 35 36 37 38 39 40 41 42 43 44 45 46 47 48 49 50

000
ASUS43 KMKX 272000
RWRWI

WISCONSIN REGIONAL WEATHER ROUNDUP
NATIONAL WEATHER SERVICE MILWAUKEE/SULLIVAN WI
300 PM CDT THU AUG 27 2015

NOTE: "FAIR" INDICATES FEW OR NO CLOUDS BELOW 12,000 FEET WITH NO
SIGNIFICANT WEATHER AND/OR OBSTRUCTIONS TO VISIBILITY.

WIZ001-002-006>008-014>016-023>028-272100-
NORTHWEST WISCONSIN

CITY           SKY/WX    TMP DP  RH WIND       PRES   REMARKS
SUPERIOR ARPT  PTSUNNY   64  54  70 NE7       30.04F
ASHLAND        MOSUNNY   75  58  55 S7        30.05F
HAYWARD        PTSUNNY   71  56  58 S10       30.07S
SIREN          CLOUDY    73  56  55 S8        30.05S
CUMBERLAND     CLOUDY    70  55  60 S7        30.08S
RICE LAKE      CLOUDY    72  56  58 S6        30.08F
CHETEK         MOSUNNY  N/A N/A N/A S7        30.07F
LADYSMITH      MOSUNNY   74  56  53 S10       30.09F
EAU CLAIRE     MOSUNNY   75  55  49 S10       30.06F
MENOMONIE      MOSUNNY   75  57  52 S10       30.07F
NEW RICHMOND   PTSUNNY   73  56  55 S10       30.05F
OSCEOLA        PTSUNNY   74  58  58 S12       30.06F
$$

WIZ003>005-009-010-017-018-272100-
NORTH CENTRAL WISCONSIN

CITY           SKY/WX    TMP DP  RH WIND       PRES   REMARKS
MANITOWISH WTR SUNNY     72  52  49 SW9       30.09S
ARBOR VITAE    SUNNY     73  54  50 SW8       30.09F
WOODRUFF       SUNNY     73  54  50 SW8       30.09F
RHINELANDER    MOSUNNY   74  53  48 SW10      30.11F
EAGLE RIVER    SUNNY     72  47  41 SW10      30.10F
LAND O LAKES   SUNNY     73  45  36 W8        30.10F
PHILLIPS       MOSUNNY   72  55  53 S7        30.08F
TOMAHAWK       SUNNY     72  53  50 CALM      30.11S
MEDFORD        MOSUNNY   72  57  59 SW7       30.10F
MERRILL        SUNNY     73  55  53 SW9       30.10F
$$

WIZ029-030-035-036-043>047-272100-
CENTRAL WISCONSIN

CITY           SKY/WX    TMP DP  RH WIND       PRES   REMARKS
WAUSAU         SUNNY     74  54  49 S10       30.09F
MOSINEE        MOSUNNY   73  54  49 SW9       30.11F
MARSHFIELD     MOSUNNY   76  53  44 SW10      30.09F
STEVENS POINT  PTSUNNY   73  53  50 W10       30.11F
WAUPACA        MOSUNNY   78  52  40 S7        30.11F
WAUTOMA        NOT AVBL
WISC RAPIDS    SUNNY     75  53  46 S7        30.11F
CAMP DOUGLAS   NOT AVBL
$$

WIZ011>013-019>022-031-037>040-048>050-272100-
NORTHEAST WISCONSIN

CITY           SKY/WX    TMP DP  RH WIND       PRES   REMARKS
ANTIGO         MOSUNNY   72  54  52 SW10      30.12F
SHAWANO        PTSUNNY   75  55  50 W3        30.11F
OCONTO         SUNNY     69  60  72 SE8       30.11F
STURGEON BAY   PTSUNNY   70  61  73 E6        30.14F
GREEN BAY      SUNNY     75  56  51 VRB6      30.11F
MANITOWOC      NOT AVBL
APPLETON       PTSUNNY   72  54  53 S7        30.11F
CLINTONVILLE   MOSUNNY   73  52  46 SW9       30.10F
OSHKOSH        MOSUNNY   74  57  55 S8        30.11F
$$

WIZ032>034-041-042-053>061-272100-
SOUTHWEST WISCONSIN

CITY           SKY/WX    TMP DP  RH WIND       PRES   REMARKS
LA CROSSE      PTSUNNY   75  57  53 S12       30.07F
SPARTA         MOSUNNY   76  53  44 S9G17     30.10F
VIROQUA        PTSUNNY   71  57  60 S8        30.11F
BOSCOBEL       CLOUDY    77  59  53 VRB7      30.09F
PRAIRIE DU CHI PTSUNNY   76  55  47 S7        30.08F
PLATTEVILLE    PTSUNNY   72  60  66 SW8       30.12F
$$

WIZ056-057-062-063-064-067-068-272100-
SOUTH CENTRAL WISCONSIN

CITY           SKY/WX    TMP DP  RH WIND       PRES   REMARKS
REEDSBURG      MOSUNNY   75  57  53 S8        30.11F
BARABOO/DELLS  MOSUNNY   76  53  44 S6        30.12F
LONE ROCK      NOT AVBL
MINERAL POINT  PTSUNNY   73  55  53 S7        30.13F
MADISON        PTSUNNY   74  55  51 SW6       30.12F
MIDDLETON      MOSUNNY   75  53  46 SW5       30.13F
WATERTOWN      PTSUNNY   74  56  53 S9        30.14F
MONROE         PTSUNNY   72  55  56 S7        30.14F
JANESVILLE     MOSUNNY   75  54  46 W6        30.13F
$$

WIZ051-052-058>065-066-070>072-272100-
SOUTHEAST WISCONSIN

CITY           SKY/WX    TMP DP  RH WIND       PRES   REMARKS
MILWAUKEE      MOSUNNY   70  54  56 SE14      30.15F
WAUKESHA       PTSUNNY   70  54  56 SW5       30.16F
MILWAUKEE/TIMM PTSUNNY   73  52  46 S7        30.14F
RACINE         SUNNY     71  52  50 S14       30.17F
BURLINGTON     SUNNY     70  53  55 CALM      30.16F
KENOSHA        MOSUNNY   73  55  53 SW9       30.16F
FOND DU LAC    SUNNY     75  55  49 SW7       30.12F
SHEBOYGAN      PTSUNNY   72  59  63 S8        30.13F
WEST BEND      CLOUDY    73  52  46 SW3       30.14F
JUNEAU         MOSUNNY   72  56  57 SW7       30.15F
$$

LSZ147-162-272100-
LAKE SUPERIOR

STATION/POSITION TIME  TEMP    WIND        PRES    WAVE
                       AIR SEA DIR/SP/G            HT/PER
                 (UTC) (F)     (DEG/KT/KT) (MB)    (FT/S)
W MID LAKE BUOY  1850   57 56  130/  2/  4 1018.6F   0
DEVILS ISLAND    1900   58      30/  6/  7 1018.4F
PORT WING        1900   59      20/ 11/ 13 1017.6F
SAXON HARBOR     1900   65        CALM     1017.6F
$$

LMZ867-665-643>646-272100-
LAKE MICHIGAN

STATION/POSITION TIME  TEMP    WIND        PRES    WAVE
                       AIR SEA DIR/SP/G            HT/PER
                 (UTC) (F)     (DEG/KT/KT) (MB)    (FT/S)
CHAMBERS ISLAND  1940   67     150/  4/  7 1020.0F
S GREEN BAY BUOY 1900   60     160/  6/  6 1022.0F
N MID LAKE BUOY  1850   59 65  200/  8/  8 1020.8F   1
NORTHPORT PIER   1900   61     130/  9/ 10 1020.3F
SISTER BAY       1904   69     320/  5/  5   N/A
ALGOMA LAKESHORE 1914          200/  5/  7   N/A
KEWAUNEE LAKESHO 1900   54     170/  8/  9   N/A
SHEBOYGAN LAKESH 1900   61     180/ 22/ 23 1021.3F
PORT WASHINGTON  1900   64     190/  4/  7 1022.0
ATWATER BUOY     1900   56 47  140/ 12/ 12 1022.7F
MILWAUKEE LAKESH 1900   56     140/ 14/ 15   N/A
S MID LAKE BUOY  1850   65 67  190/  8/ 10 1022.2S   1/ 3
KENOSHA   LAKESH 1900   63     150/ 13/ 13 1021.3F
$$

TC  - TEMPERATURE IN CELSIUS
VSB - VISIBILITY IN STATUTE MILES
WCI - WIND CHILL INDEX
HX  - HEAT INDEX




USA.gov is the U.S. government's official web portal to all federal, state and local government web resources and services.